Location: Caltech
(34.1382°N, 118.1253°W)
Time: 21:37:24
(UTC-07:00)

Courier 1B - Visible Passes

Search period start: 26 April 2018 00:00
Search period end: 06 May 2018 00:00
Orbit: 962 x 1209 km, 28.3° (Epoch: 26 April)

Date Brightness Start Highest point End Pass type
(mag) Time Alt. Az. Time Alt. Az. Time Alt. Az.
26 Apr 8.3 20:37:03 10° SW 20:42:39 30° SSE 20:45:38 21° ESE visible
26 Apr 8.9 22:29:57 10° WSW 22:32:33 24° WSW 22:32:33 24° WSW visible
27 Apr 7.7 21:36:21 10° WSW 21:42:32 46° S 21:42:33 46° S visible
28 Apr 8.0 20:42:48 10° SW 20:48:55 41° SSE 20:52:27 23° ESE visible
28 Apr 8.8 22:36:17 10° WSW 22:39:22 28° WSW 22:39:22 28° WSW visible
29 Apr 7.6 21:42:34 10° WSW 21:48:54 51° S 21:49:11 51° SSE visible
30 Apr 7.8 20:48:53 10° WSW 20:55:15 49° S 20:58:55 24° ESE visible
30 Apr 8.8 22:42:42 10° W 22:45:49 28° WSW 22:45:49 28° WSW visible
01 May 8.0 19:55:12 10° WSW 20:01:37 45° S 20:07:47 10° E visible
01 May 7.6 21:48:56 10° WSW 21:55:17 51° S 21:55:29 51° S visible
02 May 7.7 20:55:09 10° WSW 21:01:39 52° S 21:05:06 26° ESE visible
02 May 9.0 22:49:15 10° W 22:52:00 24° WSW 22:52:00 24° WSW visible
03 May 7.9 20:01:21 10° WSW 20:07:58 52° S 20:14:17 10° ESE visible
03 May 7.9 21:55:24 10° W 22:01:35 44° SSW 22:01:35 44° SSW visible
04 May 7.9 21:01:32 10° W 21:08:01 49° S 21:11:09 28° SE visible
04 May 9.3 22:56:00 10° WSW 22:58:02 18° WSW 22:58:02 18° WSW visible
05 May 7.9 20:07:40 10° WSW 20:14:21 52° S 20:20:42 10° ESE visible
05 May 8.3 22:02:00 10° W 22:07:35 34° SSW 22:07:35 34° SSW visible
